Regional Weather Roundup
Issued by NWS

Home | Current Version | Previous Version | Text Only | Print | Product List | Glossary Off
Versions: 1 2 3 4 5 6 7 8 9 10 11 12 13 14 15 16 17 18 19 20 21 22 23 24 25 26 27 28 29 30 31 32 33 34 35 36 37 38 39 40 41 42 43 44 45 46 47 48 49 50

000
ASUS43 KLMK 290210
RWRKY
KENTUCKY REGIONAL WEATHER ROUNDUP
NATIONAL WEATHER SERVICE LOUISVILLE KY
1000 PM EDT TUE JUL 28 2015

NOTE "FAIR" INDICATES FEW OR NO CLOUDS BELOW 12,000 FEET
WITH NO SIGNIFICANT WEATHER AND/OR OBSTRUCTIONS TO VISIBILITY.

KYZ001>023-026-027-061>063-070>075-290300-
WESTERN AND SOUTH CENTRAL KENTUCKY

CITY           SKY/WX    TMP DP  RH WIND       PRES   REMARKS
PADUCAH        CLOUDY    78  69  73 SE3       29.96S
HENDERSON      CLOUDY    75  72  88 SW6       29.98R
OWENSBORO      CLOUDY    77  75  93 SW5       29.99R
HOPKINSVILLE   TSTM      75  73  94 W9        30.00R
BOWLING GREEN  PTCLDY    77  73  87 SE6       29.98F
GLASGOW        CLOUDY   N/A N/A N/A SW3       29.97F
$$

KYZ024-025-028>034-038-045-046-053-290300-
NORTH CENTRAL KENTUCKY

CITY           SKY/WX    TMP DP  RH WIND       PRES   REMARKS
LOUISVILLE/SDF PTCLDY    84  72  67 S8        29.95R
LOUISVILLE/LOU CLEAR     82  73  74 S3        29.96R
FORT KNOX      PTCLDY    77  72  85 S6        29.96S
$$

KYZ035>037-039>044-047>052-055>060-089>105-290300-
NORTHEAST KENTUCKY

CITY           SKY/WX    TMP DP  RH WIND       PRES   REMARKS
LEXINGTON      CLEAR     75  72  90 CALM      29.99R
COVINGTON      MOCLDY    80  72  76 CALM      29.97R
FRANKFORT      CLEAR     77  74  90 SE5       29.97R
$$

KYZ054-064>069-076>088-106>120-290300-
SOUTHEAST KENTUCKY

CITY           SKY/WX    TMP DP  RH WIND       PRES   REMARKS
JACKSON        CLEAR     77  74  90 CALM      30.01R
LONDON         LGT RAIN  76  69  79 VRB5      30.01S
SOMERSET       PTCLDY    72  72 100 CALM      30.01F
MIDDLESBORO    CLOUDY    75  73  93 W5        30.02R
MONTICELLO     CLOUDY    75  73  93 CALM      30.03F
$$



USA.gov is the U.S. government's official web portal to all federal, state and local government web resources and services.